Location: Puketoi
(40.5833°S, 176.0167°E)
Time: 14:10:54
(UTC+00:00)

Cosmos 2233 Rocket - Pass Details

Date: 08 February 2023
Orbit: 952 x 991 km, 82.9° (Epoch: 22 March)

Event Time Altitude Azimuth Distance (km) Brightness Sun altitude
Exits shadow 14:32:45 71° 285° (WNW) 1,014 3.8 -27.6°
Maximum altitude 14:33:02 73° 262° (W) 1,007 3.9 -27.6°
Drops below altitude 10° 14:39:16 10° 177° (S) 2,720 7.0 -26.9°
Sets 14:41:48 0° 174° (S) 3,676 7.9 -26.6°
